Back to catalog

STARLINK-30893

AliveCommunicationsVLEO
NORAD 58724·PAYLOAD·🇺🇸 United States

Launched Jan 3, 2024 from Vandenberg Space Force Base

Loading…

Next Passes (next 24 hours)

TLE

FreshSource: CelesTrak SupGP

Epoch: Sep 14, 2026, 14:18 UTC

1 58724C 24002V   26257.59631944 -.00030631  00000+0 -90442-3 0  2570
2 58724  53.1578  69.0868 0000996 102.0131 333.2655 15.34426386    16

Track STARLINK-30893 in real time with AllMySat

Download on the App Store